EW1855 Weather Reports


Display with metric or nautical units.
time (UTC)temp
F
wind
direction
speed
MPH
gust
MPH
rain 1hr
in
rain 24hr
in
rain mn
in
humidity
%
barometer
mb
20260502151517 42 115 1.0 3.0 0.00 0.00 0.00 58 1022.8
20260502123007 30 113 0.0 1.0 0.00 0.00 0.00 76 1022.5
20260502121601 30 118 0.0 1.0 0.00 0.00 0.00 75 1022.7
20260502120109 32 300 0.0 1.0 0.00 0.00 0.00 73 1022.5
20260502114634 32 93 0.0 1.0 0.00 0.00 0.00 71 1022.4
20260502113056 31 79 1.0 2.0 0.00 0.00 0.00 74 1022.5
20260502111553 31 128 0.0 1.0 0.00 0.00 0.00 74 1022.4
20260502110050 32 214 0.0 1.0 0.00 0.00 0.00 73 1022.3
20260502104548 32 131 0.0 1.0 0.00 0.00 0.00 71 1022.4
20260502103045 33 155 0.0 1.0 0.00 0.00 0.00 67 1022.4
20260502101559 35 66 0.0 0.0 0.00 0.00 0.00 63 1022.3
20260502071521 38 65 2.0 4.0 0.00 0.00 0.00 58 1021.9
20260502070019 38 115 0.0 2.0 0.00 0.00 0.00 60 1021.9
20260502064533 39 266 0.0 3.0 0.00 0.00 0.00 58 1021.8
20260502063019 44 124 1.0 2.0 0.00 0.00 0.00 45 1021.5
20260502061510 44 107 1.0 2.0 0.00 0.00 0.00 46 1021.6
20260502060015 43 87 3.0 4.0 0.00 0.00 0.00 48 1021.5
20260502054508 42 103 1.0 3.0 0.00 0.00 0.00 51 1021.5
20260502053005 42 124 2.0 5.0 0.00 0.00 0.00 53 1021.4
20260502051508 45 46 0.0 4.0 0.00 0.00 0.00 44 1021.2
20260502050004 46 124 0.0 2.0 0.00 0.00 0.00 43 1021.2
20260502044505 45 28 3.0 6.0 0.00 0.00 0.00 46 1021.1
20260502043002 47 262 0.0 4.0 0.00 0.00 0.00 42 1021.1
20260502041501 48 48 0.0 7.0 0.00 0.00 0.00 39 1021.0
20260502040001 49 13 5.0 8.0 0.00 0.00 0.00 39 1020.7
20260502034600 49 52 6.0 9.0 0.00 0.00 0.00 37 1020.6
20260502033058 50 42 6.0 9.0 0.00 0.00 0.00 37 1020.4
20260502031558 51 53 3.0 8.0 0.00 0.00 0.00 36 1020.2
20260502024556 52 62 4.0 7.0 0.00 0.00 0.00 34 1019.6
20260502023104 53 32 0.0 3.0 0.00 0.00 0.00 31 1019.5
20260502021556 55 58 1.0 2.0 0.00 0.00 0.00 33 1019.4
20260502020055 58 6 1.0 2.0 0.00 0.00 0.00 27 1019.4
20260502014554 60 297 1.0 5.0 0.00 0.00 0.00 25 1019.4
20260502013057 61 293 2.0 8.0 0.00 0.00 0.00 24 1019.2
20260502011558 61 281 3.0 8.0 0.00 0.00 0.00 22 1019.2
20260502004551 62 290 2.0 5.0 0.00 0.00 0.00 22 1019.3
20260502003050 61 264 4.0 7.0 0.00 0.00 0.00 19 1019.3
20260502001549 61 210 5.0 7.0 0.00 0.00 0.00 19 1019.3
20260502000050 62 217 4.0 6.0 0.00 0.00 0.00 21 1019.4
20260501234547 61 153 5.0 10.0 0.00 0.00 0.00 19 1019.4
20260501233046 61 214 2.0 5.0 0.00 0.00 0.00 20 1019.4
20260501231543 60 235 7.0 12.0 0.00 0.00 0.00 21 1019.4
20260501230042 60 257 0.0 13.0 0.00 0.00 0.00 19 1019.6
20260501224542 59 273 4.0 10.0 0.00 0.00 0.00 23 1019.6
20260501223041 59 297 9.0 13.0 0.00 0.00 0.00 21 1019.7
20260501221538 59 291 4.0 13.0 0.00 0.00 0.00 21 1019.9
20260501220039 60 294 2.0 8.0 0.00 0.00 0.00 22 1020.0
20260501214535 59 293 7.0 14.0 0.00 0.00 0.00 26 1020.2
20260501213035 58 243 6.0 12.0 0.00 0.00 0.00 28 1020.4
20260501211530 58 236 2.0 10.0 0.00 0.00 0.00 26 1020.6
20260501210025 57 243 9.0 14.0 0.00 0.00 0.00 29 1020.8
20260501204539 57 262 9.0 15.0 0.00 0.00 0.00 29 1020.8
20260501203020 56 217 4.0 10.0 0.00 0.00 0.00 31 1021.0
20260501201519 56 219 5.0 10.0 0.00 0.00 0.00 31 1020.8
20260501200016 56 204 6.0 9.0 0.00 0.00 0.00 34 1021.0
20260501194513 55 152 6.0 9.0 0.00 0.00 0.00 38 1021.2
20260501193011 54 118 3.0 6.0 0.00 0.00 0.00 34 1021.3
20260501191513 53 281 3.0 9.0 0.00 0.00 0.00 38 1021.5
20260501190012 53 245 6.0 9.0 0.00 0.00 0.00 39 1021.7
20260501184505 52 291 0.0 8.0 0.00 0.00 0.00 41 1021.7
20260501183004 52 247 6.0 10.0 0.00 0.00 0.00 44 1021.9
20260501181501 51 199 3.0 7.0 0.00 0.00 0.00 43 1022.0
20260501180100 49 231 3.0 10.0 0.00 0.00 0.00 44 1022.2
20260501174558 50 207 2.0 7.0 0.00 0.00 0.00 45 1022.4
20260501173058 48 199 4.0 6.0 0.00 0.00 0.00 48 1022.5
20260501171600 48 259 2.0 5.0 0.00 0.00 0.00 48 1022.6
20260501170052 47 179 1.0 4.0 0.00 0.00 0.00 53 1022.7
20260501164551 46 270 2.0 5.0 0.00 0.00 0.00 58 1022.9
20260501163054 45 209 1.0 3.0 0.00 0.00 0.00 57 1022.9
20260501161544 43 333 0.0 3.0 0.00 0.00 0.00 62 1023.0
20260501160047 42 205 1.0 3.0 0.00 0.00 0.00 63 1023.0
20260501154549 41 239 0.0 3.0 0.00 0.00 0.00 70 1023.0
20260501153035 40 128 0.0 2.0 0.00 0.00 0.00 72 1023.1